Weather History for Corpus Christi, TX

Change the Weather History Date:

Friday, April 11, 2014

  Actual Average Record
Temperature  
Mean Temperature 74 °F 71 °F  
Max Temperature 85 °F 81 °F 98 °F (1979)
Min Temperature 63 °F 62 °F 40 °F (1988)
Degree Days  
Heating Degree Days 0 1  
Month to date heating degree days 2 11  
Since 1 July heating degree days 1133 892  
Cooling Degree Days 9 7  
Month to date cooling degree days 73 71  
Year to date cooling degree days 234 262  
Growing Degree Days 24 (Base 50)    
Moisture  
Dew Point 61 °F    
Average Humidity 69    
Maximum Humidity 93    
Minimum Humidity 44    
Precipitation  
Precipitation 0.00 in 0.06 in 1.24 in (1985)
Month to date precipitation 0.27 0.60  
Year to date precipitation 2.83 5.96  
Snow  
Snow 0.00 in - - ()
Month to date snowfall 0.0  
Since 1 July snowfall T  
Snow Depth 0.00 in    
Sea Level Pressure  
Sea Level Pressure 29.99 in    
Wind  
Wind Speed 15 mph (SSE)    
Max Wind Speed 25 mph    
Max Gust Speed 33 mph    
Visibility 10 miles    
Events      
T = Trace of Precipitation, MM = Missing Value Source: NWS Daily Summary

Daily Weather History Graph

Daily Weather History Graph

Search for Another Location

Airport:

Trip Planner

Search our weather history database for the weather conditions in past years. The results will help you decide how hot, cold, wet, or windy it might be!

Date:

Astronomy

Apr. 11, 2014 Rise Set
Actual Time 7:09 AM CDT 7:53 PM CDT
Civil Twilight 6:45 AM CDT 8:16 PM CDT
Nautical Twilight 6:17 AM CDT 8:44 PM CDT
Astronomical Twilight 5:49 AM CDT 9:13 PM CDT
Moon 4:50 PM CDT (4/11) 4:47 AM CDT (4/11)
Length of Visible Light 13h 31m
Length of Day
12h 43m
Waxing Gibbous, 87% of the Moon is Illuminated
Apr 11
Waxing Gibbous
Apr 15
Full
Apr 22
Last Quarter
Apr 29
New
May 6
First Quarter

Hourly Weather History & Observations

Time (CDT) Temp. Heat Index Dew Point Humidity Pressure Visibility Wind Dir Wind Speed Gust Speed Precip Events Conditions
12:51 AM 68.0 °F - 60.1 °F 76% 30.02 in 10.0 mi South 12.7 mph - N/A   Overcast
1:51 AM 66.9 °F - 60.1 °F 79% 30.01 in 10.0 mi SSE 10.4 mph - N/A   Mostly Cloudy
2:51 AM 66.0 °F - 60.1 °F 81% 30.00 in 10.0 mi SSE 9.2 mph - N/A   Scattered Clouds
3:51 AM 64.9 °F - 61.0 °F 87% 29.99 in 10.0 mi SSE 9.2 mph - N/A   Partly Cloudy
4:51 AM 64.0 °F - 61.0 °F 90% 29.98 in 10.0 mi SSE 9.2 mph - N/A   Partly Cloudy
5:51 AM 64.0 °F - 61.0 °F 90% 29.98 in 10.0 mi SSE 9.2 mph - N/A   Partly Cloudy
6:51 AM 64.0 °F - 61.0 °F 90% 29.99 in 10.0 mi SSE 8.1 mph - N/A   Partly Cloudy
7:51 AM 64.0 °F - 62.1 °F 93% 30.01 in 10.0 mi SSE 5.8 mph - N/A   Mostly Cloudy
8:51 AM 70.0 °F - 63.0 °F 78% 30.02 in 10.0 mi South 9.2 mph - N/A   Mostly Cloudy
9:51 AM 75.0 °F - 61.0 °F 62% 30.03 in 10.0 mi South 19.6 mph 26.5 mph N/A   Mostly Cloudy
10:51 AM 79.0 °F - 60.1 °F 52% 30.04 in 10.0 mi South 16.1 mph 26.5 mph N/A   Mostly Cloudy
11:51 AM 82.0 °F 82.4 °F 60.1 °F 47% 30.04 in 10.0 mi South 13.8 mph 24.2 mph N/A   Mostly Cloudy
12:51 PM 82.9 °F 83.2 °F 60.1 °F 46% 30.01 in 10.0 mi SE 18.4 mph 28.8 mph N/A   Mostly Cloudy
1:51 PM 84.0 °F 84.4 °F 61.0 °F 46% 29.99 in 10.0 mi SE 21.9 mph 31.1 mph N/A   Scattered Clouds
2:51 PM 84.0 °F 84.4 °F 61.0 °F 46% 29.97 in 10.0 mi SSE 18.4 mph 32.2 mph N/A   Scattered Clouds
3:51 PM 82.9 °F 83.3 °F 61.0 °F 47% 29.95 in 10.0 mi SSE 23.0 mph 31.1 mph N/A   Scattered Clouds
4:51 PM 82.0 °F 82.7 °F 61.0 °F 49% 29.94 in 10.0 mi SE 21.9 mph 29.9 mph N/A   Mostly Cloudy
5:51 PM 79.0 °F - 60.1 °F 52% 29.93 in 10.0 mi SE 24.2 mph 32.2 mph N/A   Scattered Clouds
6:51 PM 75.0 °F - 62.1 °F 64% 29.94 in 10.0 mi SE 23.0 mph 27.6 mph N/A   Mostly Cloudy
7:51 PM 73.0 °F - 63.0 °F 71% 29.95 in 10.0 mi SE 17.3 mph 26.5 mph N/A   Mostly Cloudy
8:51 PM 72.0 °F - 64.0 °F 76% 29.97 in 10.0 mi SE 13.8 mph 23.0 mph N/A   Mostly Cloudy
9:51 PM 71.1 °F - 64.0 °F 78% 29.99 in 10.0 mi SE 12.7 mph - N/A   Mostly Cloudy
10:51 PM 70.0 °F - 64.0 °F 81% 30.00 in 10.0 mi SE 12.7 mph - N/A   Scattered Clouds
11:51 PM 69.1 °F - 64.0 °F 84% 29.99 in 10.0 mi SE 10.4 mph - N/A   Mostly Cloudy